Location: ???????
(52.3000°N, 54.4667°E)
Time: 09:45:13
(UTC+00:00)

NOAA 11 - Pass Details

Date: 24 January 2020
Orbit: 832 x 850 km, 98.4° (Epoch: 19 February)

Event Time Altitude Azimuth Distance (km) Brightness Sun altitude
Rises 14:30:08 0° 155° (SSE) 3,404 7.2 -14.5°
Reaches altitude 10° 14:32:30 10° 154° (SSE) 2,471 6.5 -14.9°
Maximum altitude 14:37:58 72° 71° (ENE) 895 4.1 -15.7°
Drops below altitude 10° 14:43:27 10° 348° (NNW) 2,478 6.7 -16.5°
Sets 14:45:49 0° 347° (NNW) 3,415 7.4 -16.9°
